Home   Weather   Manhattan   Past weeks

Flag for USA Past Weather in Manhattan, Kansas, USA — Yesterday and Last 2 Weeks

Now
81 °F

Sunny.


Feels Like: 83 °F
Forecast: 77 / 102 °F
Wind: 6 mph from Southwest

Location: Manhattan Municipal Airport

Current Time: Jul 22, 2017 at 8:02:40 am

Latest Report: Jul 22, 2017 at 6:52 am


Visibility: 10 mi

Pressure: 29.77 "Hg

Humidity: 62%

Dew Point: 67 °F

Location of ManhattanLocation

Past Weather in Manhattan — Graph

°F

Manhattan Temperature Yesterday

Maximum temperature yesterday: 107 °F (at 3:52 pm)
Minimum temperature yesterday: 80 °F (at 5:52 am)
Average temperature yesterday: 94 °F

High & Low Weather Summary for the Past Weeks

 TemperatureHumidityPressure
High107 °F (Jul 21, 3:52 pm)97% (Jul 15, 5:52 am)30.13 "Hg (Jul 15, 5:52 am)
Low59 °F (Jul 8, 5:52 am)23% (Jul 21, 3:52 pm)29.70 "Hg (Jul 11, 5:52 pm)
Average85 °F62%29.94 "Hg
* Reported Jul 7 5:52 am — Jul 22 5:52 am, Manhattan. Weather by CustomWeather, © 2017

Note: Actual official high and low records may vary slightly from our data, if they occured in-between our weather recording intervals... More about our weather records

Advertising

Manhattan Weather History for the Previous 24 Hours

Scroll right to see more
 ConditionsComfort  
Time TempWeatherWind HumidityBarometerVisibility
5:52 am
Sat, Jul 22
82 °FClear.7 mph60%29.76 "Hg10 mi
4:52 am84 °FClear.12 mph57%29.76 "Hg10 mi
3:52 am84 °FClear.10 mph61%29.75 "Hg10 mi
2:52 am86 °FClear.14 mph57%29.75 "Hg10 mi
1:52 am87 °FClear.20 mph55%29.75 "Hg10 mi
12:52 am89 °FClear.15 mph50%29.75 "Hg10 mi
11:52 pm
Fri, Jul 21
91 °FClear.15 mph47%29.75 "Hg10 mi
10:52 pm92 °FClear.15 mph46%29.75 "Hg10 mi
9:52 pm94 °FClear.12 mph41%29.74 "Hg10 mi
8:52 pm96 °FClear.12 mph38%29.70 "Hg10 mi
7:52 pm99 °FSunny.8 mph34%29.70 "Hg10 mi
6:52 pm104 °FSunny.13 mph27%29.72 "Hg10 mi
5:52 pm105 °FSunny.16 mph27%29.72 "Hg10 mi
4:52 pm106 °FSunny.18 mph26%29.74 "Hg10 mi
3:52 pm107 °FSunny.21 mph23%29.76 "Hg10 mi
2:52 pm106 °FSunny.21 mph26%29.77 "Hg10 mi
1:52 pm104 °FSunny.14 mph34%29.79 "Hg10 mi
12:52 pm101 °FSunny.17 mph37%29.82 "Hg10 mi
11:52 am99 °FSunny.16 mph39%29.83 "Hg10 mi
10:52 am96 °FSunny.18 mph41%29.84 "Hg10 mi
9:52 am93 °FSunny.13 mph47%29.85 "Hg10 mi
8:52 am88 °FSunny.16 mph55%29.85 "Hg10 mi
Weather by CustomWeather, © 2017

See weather overviewHow to use our weather pages